User: anonymous   Login
Location: Banff
(51.1667°N, 115.5667°W)
Time: 21:13:49
(UTC+00:00)
Language:

Explorer 11/Cluster Stage 4 - Orbit

View from above orbital plane
View from above orbital plane
View from above satellite
View from above satellite

Ground track
Ground track

The orbit data is extracted from the following two-line orbital elements,

1   107U 61013A   21331.96512177  .00001239  00000-0  14424-3 0  9990
2   107  28.7915  75.7007 0544797 254.8175  99.1538 14.09446868 40397
Epoch (UTC): 27 November 2021 23:09:46
Eccentricity: 0.0544797
inclination: 28.7915°
perigee height: 467 km
apogee height: 1255 km
right ascension of ascending node: 75.7007°
argument of perigee: 254.8175°
revolutions per day: 14.09446868
mean anomaly at epoch: 99.1538°
orbit number at epoch: 4039

The dashed part of the orbit path shows where the satellite is in the earth's shadow,  

DLR